This demonstration page uses our WeatherBlox Daily Observations layout. Learn more.

Left ArrowRight Arrow

Hourly Observations for June 28, 2021

Temp ( °F °C ) Dew Point ( °F °C ) Humidity (%) Winds ( mph kmh ) Pressure ( in mb ) Visibility ( mi km ) Precip ( " mm )
12:53 am 00:53 Clear 72 22.2 69 20.6 91 91 NNW 3 6 30.14 1021 10 16 0.00 0.00
1:53 am 01:53 Clear 73 22.8 69 20.6 87 87 Calm 30.14 1021 10 16 0.00 0.00
2:53 am 02:53 Clear 72 22.2 69 20.6 91 91 Calm 30.14 1021 10 16 0.00 0.00
3:53 am 03:53 Clear 71 21.7 69 20.6 94 94 Calm 30.15 1021 10 16 0.00 0.00
4:53 am 04:53 Cloudy 72 22.2 70 21.1 94 94 Calm 30.16 1021 10 16 0.00 0.00
5:53 am 05:53 Cloudy 72 22.2 70 21.1 94 94 Calm 30.17 1022 10 16 0.00 0.00
6:53 am 06:53 Mostly Cloudy 72 22.2 70 21.1 94 94 Calm 30.18 1022 10 16 0.00 0.00
7:53 am 07:53 Cloudy 74 23.3 71 21.7 91 91 Calm 30.20 1023 10 16 0.00 0.00
8:53 am 08:53 Cloudy 78 25.6 72 22.2 82 82 N 3 6 30.22 1023 10 16 0.00 0.00
9:53 am 09:53 Partly Cloudy 79 26.1 68 20 69 69 SE 6 9 30.21 1023 10 16 0.00 0.00
10:53 am 10:53 Partly Cloudy 81 27.2 68 20 65 65 SSW 5 7 30.21 1023 10 16 0.00 0.00
11:53 am 11:53 Partly Cloudy 83 28.3 67 19.4 59 59 VRB 3 6 30.20 1023 10 16 0.00 0.00
12:53 pm 12:53 Partly Cloudy 85 29.4 66 18.9 53 53 ENE 10 17 30.20 1023 10 16 0.00 0.00
1:53 pm 13:53 Mostly Sunny 87 30.6 65 18.3 48 48 E 8 13 30.18 1022 10 16 0.00 0.00
2:53 pm 14:53 Mostly Cloudy 88 31.1 65 18.3 46 46 SSE 7 11 30.16 1021 10 16 0.00 0.00
3:53 pm 15:53 Mostly Sunny 89 31.7 64 17.8 43 43 VRB 7 11 30.14 1021 10 16 0.00 0.00
4:53 pm 16:53 Mostly Cloudy 88 31.1 64 17.8 45 45 ESE 6 9 30.12 1020 10 16 0.00 0.00
5:53 pm 17:53 Cloudy 87 30.6 65 18.3 48 48 undefined N/A 30.11 1020 10 16 0.00 0.00
6:53 pm 18:53 Mostly Sunny 89 31.7 65 18.3 45 45 E 7 11 30.10 1019 10 16 0.00 0.00
7:53 pm 19:53 Sunny 86 30 67 19.4 53 53 SE 5 7 30.10 1019 10 16 0.00 0.00
8:53 pm 20:53 Clear 84 28.9 66 18.9 55 55 E 3 6 30.11 1020 10 16 0.00 0.00
9:53 pm 21:53 Clear 77 25 68 20 74 74 Calm 30.14 1021 10 16 0.00 0.00
10:53 pm 22:53 Mostly Cloudy 76 24.4 70 21.1 82 82 Calm 30.16 1021 10 16 0.00 0.00
11:53 pm 23:53 Cloudy 77 25 70 21.1 79 79 Calm 30.15 1021 10 16 0.00 0.00

Powered by AerisWeather